Vertical_Velocity
-2 -2 -1 0 2 -1 -3 -3 -4 2 0 -1 0 -1 -3 2 -2 -0 -9 -1 -1 2 -3 -0 -2 -1 -1 -2 -2 -2 1 -5 4 -1 4 4 1 -2 -1 -7 3 1 -2 7
-1 -3 -2 -1 -0 -0 0 -2 -4 -0 -0 -1 1 4 2 -3 -2 3 -3 -4 -2 2 2 -20 2 -4 -2 -1 -1 -7 -2 -6 -10 -1 -1 2 -0 6 -0 1 5 14 -4 -0
1 -1 -1 -1 1 0 -2 -4 -6 -0 -1 -3 -4 -6 7 -4 -1 2 -2 -1 -7 -3 6 -2 -2 -3 -11 -4 -2 -6 -7 9 4 5 7 -6 -8 -4 -3 -1 -3 -2 -1 3
-0 0 0 -1 -0 2 -1 4 -0 -2 1 4 -0 0 -2 1 -14 11 3 7 -5 2 -1 -7 -3 5 1 1 -0 -0 -2 1 -12 7 -1 -2 -1 3 0 -6 1 -6 5 1
-0 0 -0 -1 -1 -3 6 -12 -4 5 4 5 -2 6 6 5 -0 1 4 1 -6 -1 5 -4 -7 -6 -1 13 3 -5 -2 -10 -8 10 3 1 1 5 1 -6 -1 -1 -6 4
-1 -1 1 1 -3 -1 -4 12 -3 -12 8 6 13 15 10 1 -4 7 7 -3 -6 1 1 -6 4 5 8 -0 1 0 5 1 -6 4 -3 1 -4 5 4 1 1 -4 -3 -1
0 0 0 -0 -2 -2 -4 8 1 -6 -6 -6 13 4 3 5 4 -6 9 2 -3 -5 2 -6 -3 6 5 12 14 2 -0 1 -4 -6 -4 1 -2 -2 -4 -1 4 -6 0 -1
1 1 2 1 -0 -6 -4 -3 5 -6 -13 -3 11 0 0 1 12 5 -6 9 9 2 -5 -12 -15 -3 0 9 11 9 -0 1 -6 -10 -10 1 17 4 -1 -5 25 -7 3 0
3 4 2 1 2 4 -13 1 2 -5 -30 34 -2 -5 3 1 2 -1 13 5 6 3 -1 9 -4 -6 0 -13 -9 1 -0 3 2 1 -12 -14 3 -3 -4 -8 6 6 1 -1
4 2 2 3 3 5 -3 0 9 2 -27 18 -3 -1 -12 3 4 -4 2 3 -1 7 5 -1 4 -7 2 1 -2 4 1 -0 2 1 -8 -10 7 0 -2 -3 -10 -2 1 -2
5 3 6 8 7 9 3 -2 7 7 -20 2 4 -1 4 -3 7 7 -3 0 5 -1 2 6 4 -6 4 1 0 -1 3 2 3 1 -3 -13 3 -1 -7 -3 -4 -1 -1 -0
1 5 7 4 7 8 10 0 9 13 -3 -12 -1 7 6 -1 12 -0 -8 6 13 0 -2 5 -8 -4 -5 6 -11 2 -11 5 -1 5 4 1 -6 -1 1 0 -2 -5 -3 -3
3 6 6 6 7 10 7 6 11 11 7 -13 -7 1 11 11 6 13 3 -2 8 6 8 0 3 -5 1 13 -6 -1 2 2 -5 2 7 -2 -3 -0 -2 -5 -4 -4 -4 -3
-8 -6 1 7 6 5 4 -3 13 15 5 -16 11 7 2 9 6 7 7 7 5 5 7 1 4 8 2 -7 1 7 12 5 7 -2 1 -8 5 2 1 -2 -2 -3 -3 -3
1 -0 -6 -5 -1 -1 -1 -6 4 8 10 -16 -23 -6 9 4 2 3 3 3 4 7 2 2 -4 1 8 5 -1 8 9 5 4 -7 0 0 3 -1 3 1 -2 -1 -2 -3
5 3 3 1 1 -5 2 -15 10 6 9 -5 -7 -16 -5 6 4 2 5 8 -1 5 7 6 -3 3 9 -5 0 11 8 3 -0 -2 -1 2 1 2 2 2 -1 1 -1 -0
5 5 4 6 7 1 -3 -9 -2 12 9 -1 -8 -21 2 -0 -1 0 1 4 1 3 1 -1 4 4 7 2 3 8 -0 -0 1 -0 -0 1 2 2 2 2 0 -0 1 -1
6 9 9 8 8 6 -1 -1 3 6 9 7 -10 -16 -10 3 -2 -1 3 -2 1 -0 -1 2 6 4 9 -4 7 1 2 1 -0 0 -0 -1 0 2 1 -0 -1 -2 -2 -1
6 11 9 4 3 5 1 13 11 5 7 3 -16 -1 -6 -9 -0 2 -6 -1 -1 -3 -1 5 2 7 3 -1 -1 0 0 -2 1 0 1 -1 -1 -2 1 0 -1 -1 -1 0
18 0 10 -2 -1 13 13 3 -2 2 -0 -1 -4 4 -5 4 12 -1 5 -1 2 -5 -2 2 1 5 -0 -3 -2 0 0 0 -2 -1 1 -2 1 -1 -1 -1 0 1 0 -1
-3 -1 6 10 9 6 9 9 -2 5 -5 4 6 10 6 12 3 5 -0 1 1 -8 -1 2 -5 4 -3 -1 -1 -0 0 -1 -1 -0 -1 -1 -1 -0 -2 -1 -1 1 0 -1
3 7 6 -5 -0 2 7 10 7 1 -1 -11 4 10 6 6 4 4 -3 2 -4 -2 -1 -0 -4 -0 1 0 1 2 -0 -2 -1 0 -1 0 -0 0 -0 -2 -1 2 1 1
4 7 -1 3 2 3 -6 -8 5 2 8 8 7 4 9 4 10 1 1 -1 1 1 -1 -1 2 1 1 -0 0 0 -1 -1 -2 -3 -3 -1 -0 -0 1 -0 0 -1 -3 0
1 2 1 2 -4 1 -0 8 -5 -2 3 10 14 8 3 2 -4 3 3 -0 -0 -5 3 1 1 0 -1 -0 0 -1 -2 -2 -3 -2 -2 -2 -3 -1 1 0 -1 -0 -0 -1
3 0 -1 3 -2 -2 3 3 -4 21 4 4 4 3 4 4 3 5 0 -2 -0 -0 -1 1 -0 0 -2 -1 -1 -1 -3 -5 -4 -3 -3 -2 -2 -3 -2 2 -1 -1 -1 -1
0 -4 -3 -2 1 16 4 13 34 34 13 5 10 1 1 2 3 -1 1 1 1 1 1 1 0 -2 -1 -0 0 -2 -4 -4 -3 -2 -2 -1 -2 -2 -0 0 -1 -1 -2 -1
-9 -3 2 1 -0 0 2 1 1 4 6 4 2 4 2 -0 -0 2 2 1 -0 -0 2 0 -1 -3 -1 0 -1 -2 -3 -4 -2 -2 -1 -2 -2 -1 0 -0 -1 -2 -2 -0
Height
5718 5716 5713 5710 5708 5703 5701 5697 5693 5690 5685 5683 5677 5673 5666 5661 5654 5647 5642 5635 5628 5621 5615 5607 5599 5590 5579 5569 5559 5550 5541 5531 5524 5518 5506 5499 5493 5482 5472 5461 5454 5443 5432 5426
5707 5705 5702 5699 5698 5696 5692 5688 5683 5679 5673 5670 5665 5662 5656 5648 5643 5637 5631 5624 5618 5612 5606 5595 5589 5579 5570 5559 5550 5539 5532 5523 5513 5508 5499 5490 5487 5478 5469 5459 5450 5442 5428 5419
5695 5693 5691 5688 5685 5684 5682 5679 5674 5669 5663 5660 5655 5649 5646 5637 5632 5627 5621 5614 5608 5601 5595 5586 5577 5568 5558 5549 5540 5530 5520 5517 5508 5501 5491 5479 5478 5470 5461 5452 5442 5435 5425 5415
5683 5681 5678 5675 5672 5670 5669 5666 5662 5657 5649 5647 5642 5637 5633 5625 5619 5616 5609 5602 5594 5588 5582 5574 5566 5558 5548 5538 5529 5522 5512 5507 5497 5492 5483 5471 5471 5463 5453 5444 5435 5427 5420 5409
5670 5667 5664 5662 5658 5654 5654 5650 5647 5644 5639 5635 5629 5625 5621 5614 5607 5602 5596 5588 5581 5575 5570 5562 5552 5545 5537 5530 5521 5511 5502 5494 5486 5482 5475 5463 5462 5455 5444 5437 5427 5419 5409 5403
5656 5653 5650 5647 5643 5640 5637 5636 5634 5628 5623 5621 5618 5616 5608 5601 5595 5590 5581 5573 5567 5561 5554 5549 5542 5533 5525 5515 5508 5500 5492 5484 5475 5470 5463 5453 5453 5447 5437 5430 5420 5411 5403 5396
5642 5639 5636 5633 5629 5625 5621 5620 5617 5614 5609 5605 5601 5600 5594 5587 5580 5575 5569 5560 5551 5546 5540 5532 5528 5521 5514 5506 5497 5488 5479 5471 5462 5455 5450 5440 5441 5433 5426 5420 5413 5402 5395 5387
5628 5624 5621 5617 5613 5609 5607 5603 5600 5595 5593 5589 5585 5581 5576 5571 5566 5559 5553 5549 5540 5529 5523 5515 5509 5507 5499 5493 5485 5477 5468 5458 5449 5442 5436 5429 5433 5423 5416 5409 5408 5392 5386 5378
5612 5609 5606 5602 5598 5593 5588 5586 5582 5578 5575 5574 5569 5562 5560 5553 5549 5543 5539 5533 5525 5516 5508 5500 5492 5485 5481 5473 5469 5466 5457 5447 5438 5430 5420 5411 5416 5409 5403 5396 5393 5384 5375 5368
5595 5592 5590 5586 5583 5578 5572 5571 5566 5558 5556 5557 5552 5548 5543 5539 5534 5527 5522 5516 5508 5502 5493 5485 5480 5474 5466 5459 5455 5449 5443 5434 5425 5415 5403 5401 5401 5395 5389 5383 5380 5371 5364 5357
5575 5573 5572 5569 5565 5561 5553 5555 5551 5541 5536 5542 5540 5534 5529 5525 5519 5513 5506 5498 5492 5484 5479 5471 5466 5457 5452 5444 5440 5434 5429 5420 5413 5403 5392 5388 5386 5380 5374 5369 5363 5357 5351 5344
5551 5551 5550 5548 5547 5543 5537 5537 5532 5525 5512 5524 5521 5518 5515 5508 5504 5496 5489 5483 5477 5466 5461 5456 5447 5442 5436 5432 5426 5420 5411 5408 5398 5392 5383 5375 5369 5366 5359 5353 5347 5342 5337 5331
5530 5529 5528 5526 5524 5522 5518 5516 5513 5506 5497 5494 5500 5501 5498 5493 5489 5483 5470 5467 5462 5454 5447 5439 5434 5425 5421 5415 5410 5404 5397 5390 5383 5374 5371 5363 5355 5349 5343 5337 5332 5326 5320 5315
5505 5504 5504 5504 5502 5499 5495 5494 5495 5487 5478 5469 5484 5482 5481 5478 5472 5466 5459 5451 5444 5438 5431 5423 5419 5413 5405 5400 5396 5390 5385 5375 5368 5361 5355 5348 5343 5335 5327 5321 5315 5309 5303 5298
5485 5482 5480 5480 5478 5475 5471 5470 5473 5468 5458 5446 5453 5458 5463 5459 5456 5450 5442 5435 5429 5422 5415 5408 5403 5397 5390 5383 5377 5376 5369 5362 5354 5347 5342 5334 5329 5320 5313 5304 5298 5292 5286 5281
5461 5461 5461 5459 5456 5454 5449 5450 5456 5451 5443 5432 5430 5436 5442 5440 5436 5432 5426 5419 5412 5405 5399 5393 5386 5381 5374 5365 5362 5359 5352 5344 5337 5333 5326 5319 5311 5305 5297 5290 5282 5277 5271 5266
5434 5435 5438 5438 5438 5432 5430 5435 5436 5435 5427 5419 5412 5412 5424 5422 5419 5415 5410 5403 5396 5390 5383 5377 5371 5366 5358 5351 5348 5342 5334 5328 5321 5314 5308 5302 5295 5287 5281 5274 5266 5260 5255 5251
5405 5409 5411 5413 5413 5412 5413 5415 5416 5414 5410 5404 5397 5400 5406 5405 5401 5397 5391 5384 5378 5372 5365 5362 5357 5350 5343 5338 5333 5325 5318 5311 5304 5297 5290 5285 5278 5270 5263 5256 5249 5243 5238 5234
5377 5379 5379 5384 5388 5391 5396 5397 5395 5393 5393 5385 5385 5390 5389 5387 5386 5379 5373 5367 5360 5355 5352 5347 5341 5337 5328 5322 5317 5310 5303 5296 5289 5281 5273 5266 5259 5253 5246 5239 5232 5226 5222 5218
5348 5349 5353 5356 5366 5373 5377 5373 5371 5371 5372 5372 5373 5376 5374 5372 5367 5361 5356 5350 5345 5338 5338 5331 5327 5322 5313 5307 5301 5294 5287 5280 5273 5265 5258 5250 5242 5235 5228 5222 5216 5211 5206 5202
5324 5328 5332 5333 5340 5347 5350 5348 5349 5352 5354 5359 5364 5363 5359 5356 5350 5345 5339 5333 5328 5324 5325 5317 5312 5306 5298 5292 5286 5278 5272 5264 5257 5249 5241 5233 5225 5218 5211 5205 5199 5195 5190 5186
5307 5310 5309 5316 5321 5322 5326 5325 5328 5333 5339 5346 5349 5347 5342 5338 5333 5328 5324 5320 5315 5312 5309 5303 5296 5290 5283 5276 5270 5263 5256 5248 5240 5233 5225 5217 5210 5203 5195 5189 5183 5179 5175 5171
5289 5293 5296 5300 5304 5306 5307 5313 5318 5320 5324 5329 5330 5328 5325 5321 5319 5313 5310 5306 5304 5299 5295 5288 5282 5274 5267 5261 5254 5247 5240 5232 5225 5217 5210 5203 5196 5188 5181 5174 5168 5162 5158 5154
5273 5278 5282 5286 5288 5294 5300 5304 5306 5310 5310 5313 5313 5311 5310 5306 5304 5301 5298 5293 5290 5285 5280 5274 5266 5259 5253 5247 5240 5232 5225 5218 5210 5203 5196 5189 5181 5173 5167 5160 5152 5147 5143 5139
5264 5267 5270 5275 5281 5286 5289 5293 5297 5298 5300 5301 5300 5299 5298 5295 5292 5291 5286 5281 5277 5271 5266 5260 5253 5246 5240 5234 5226 5219 5212 5205 5198 5191 5183 5175 5168 5160 5153 5146 5139 5133 5130 5127
5253 5257 5265 5271 5276 5278 5282 5284 5288 5289 5289 5290 5290 5287 5286 5284 5282 5279 5274 5270 5265 5260 5254 5248 5242 5236 5229 5222 5215 5208 5201 5195 5188 5180 5172 5164 5156 5149 5141 5133 5127 5123 5120 5118
5249 5255 5260 5263 5267 5271 5275 5278 5279 5281 5281 5281 5280 5278 5276 5274 5271 5267 5263 5259 5254 5249 5244 5239 5233 5226 5219 5212 5205 5199 5192 5185 5177 5170 5162 5154 5147 5139 5131 5124 5119 5115 5112 5110